Terminal Aerodrome Forecast
Issued by NWS

Home | Current Version | Previous Version | Graphics & Text | Print | Product List | Glossary On
Versions: 1 2 3 4 5 6 7 8 9 10 11 12 13 14 15 16
000
FTUS45 KGGW 231500 AAA
TAFSDY
TAF AMD
KSDY 231513Z 2315/2412 13014KT P6SM VCSH SCT050 OVC080
     FM231900 14012KT P6SM BKN090
     FM240000 VRB05KT P6SM SCT170
      AMD LTD TO CLD VIS AND WIND=

USA.gov is the U.S. government's official web portal to all federal, state and local government web resources and services.